Atka, AK

1:36 PM HDT on May 25, 2017 (GMT -0900)
Atka

Weather History for PAAK - January, 2013

Change the Weather History Date:

Tuesday, January 29, 2013

  Actual Average (PADK) Record (PADK)
Temperature  
Mean Temperature 29 °F -  
Max Temperature 30 °F 37 °F 48 °F (1968)
Min Temperature 28 °F 28 °F 15 °F (2011)
Degree Days  
Heating Degree Days 36    
Moisture  
Dew Point 21 °F    
Average Humidity 71    
Maximum Humidity 86    
Minimum Humidity 55    
Precipitation  
Precipitation 0.00 in - - ()
Sea Level Pressure  
Sea Level Pressure 29.21 in    
Wind  
Wind Speed 17 mph (WNW)    
Max Wind Speed 24 mph    
Max Gust Speed 31 mph    
Visibility 9 miles    
Events      
Averages and records for this station are not official NWS values.
T = Trace of Precipitation, MM = Missing Value Source: NWS Daily Summary

Daily Weather History Graph

Daily Weather History Graph

Search for Another Location

Airport or City:

Trip Planner

Search our weather history database for the weather conditions in past years. The results will help you decide how hot, cold, wet, or windy it might be!

Date:

Astronomy

Jan. 29, 2013 Rise Set
Actual Time 9:21 AM HST 6:19 PM HST
Civil Twilight 8:44 AM HST 6:56 PM HST
Nautical Twilight 8:02 AM HST 7:37 PM HST
Astronomical Twilight 7:23 AM HST 8:17 PM HST
Moon 10:02 PM HST (1/29) 9:57 AM HST (1/29)
Length of Visible Light 10h 12m
Length of Day
8h 58m
Waning Gibbous, 92% of the Moon is Illuminated
Jan 29
Waning Gibbous
Feb 3
Last Quarter
Feb 9
New
Feb 17
First Quarter
Feb 25
Full

Hourly Weather History & Observations

Time (HST) Temp. Windchill Dew Point Humidity Pressure Visibility Wind Dir Wind Speed Gust Speed Precip Events Conditions
12:16 AM - - - N/A% 29.05 in 10.0 mi NNW 20.7 mph 26.5 mph N/A   Mostly Cloudy
12:36 AM - - - N/A% 29.05 in 9.0 mi NW 24.2 mph - N/A   Mostly Cloudy
12:56 AM 28.4 °F 14.7 °F 21.2 °F 74% 29.07 in 10.0 mi NW 21.9 mph 26.5 mph N/A   Overcast
1:16 AM 28.4 °F 14.4 °F 21.2 °F 74% 29.07 in 10.0 mi NW 23.0 mph 31.1 mph N/A   Overcast
1:36 AM - - - N/A% 29.07 in 10.0 mi NW 19.6 mph - N/A   Overcast
1:56 AM 28.4 °F 15.4 °F 21.2 °F 74% 29.07 in 10.0 mi NNW 19.6 mph 24.2 mph N/A   Overcast
2:16 AM 28.4 °F 15.4 °F 21.2 °F 74% 29.07 in 10.0 mi NW 19.6 mph 24.2 mph N/A   Overcast
2:36 AM 28.4 °F 16.6 °F 21.2 °F 74% 29.08 in 8.0 mi NNW 16.1 mph 27.6 mph N/A   Overcast
2:56 AM 28.4 °F 17.0 °F 21.2 °F 74% 29.08 in 7.0 mi NW 15.0 mph - N/A   Overcast
3:16 AM 28.4 °F 17.0 °F 21.2 °F 74% 29.09 in 10.0 mi NNW 15.0 mph 21.9 mph N/A   Overcast
3:36 AM 28.4 °F 16.2 °F 21.2 °F 74% 29.09 in 5.0 mi NNW 17.3 mph - N/A   Overcast
3:56 AM 28.4 °F 17.0 °F 21.2 °F 74% 29.09 in 7.0 mi NNW 15.0 mph 18.4 mph N/A   Overcast
4:16 AM 28.4 °F 17.5 °F 21.2 °F 74% 29.09 in 10.0 mi NW 13.8 mph - N/A   Overcast
4:36 AM 28.4 °F 17.5 °F 21.2 °F 74% 29.10 in 10.0 mi NW 13.8 mph 20.7 mph N/A   Overcast
4:56 AM 28.4 °F 17.0 °F 21.2 °F 74% 29.10 in 10.0 mi NW 15.0 mph 20.7 mph N/A   Overcast
5:16 AM 28.4 °F 16.6 °F 21.2 °F 74% 29.10 in 10.0 mi NW 16.1 mph 23.0 mph N/A   Overcast
5:36 AM 28.4 °F 15.8 °F 19.4 °F 69% 29.10 in 10.0 mi NW 18.4 mph - N/A   Overcast
5:56 AM 28.4 °F 16.6 °F 21.2 °F 74% 29.11 in 10.0 mi NW 16.1 mph 19.6 mph N/A   Overcast
6:16 AM 28.4 °F 16.2 °F 21.2 °F 74% 29.11 in 10.0 mi NW 17.3 mph 24.2 mph N/A   Overcast
6:36 AM 28.4 °F 17.0 °F 19.4 °F 69% 29.11 in 10.0 mi NW 15.0 mph 20.7 mph N/A   Overcast
6:56 AM 30.2 °F 19.3 °F 19.4 °F 64% 29.11 in 10.0 mi NW 15.0 mph 24.2 mph N/A   Overcast
7:16 AM 30.2 °F 18.5 °F 17.6 °F 60% 29.11 in 10.0 mi NNW 17.3 mph 25.3 mph N/A   Overcast
7:36 AM 30.2 °F 18.1 °F 19.4 °F 64% 29.12 in 10.0 mi NW 18.4 mph 25.3 mph N/A   Overcast
7:56 AM 28.4 °F 16.6 °F 21.2 °F 74% 29.13 in 10.0 mi WNW 16.1 mph 23.0 mph N/A   Mostly Cloudy
8:16 AM 28.4 °F 16.6 °F 21.2 °F 74% 29.14 in 10.0 mi WNW 16.1 mph - N/A   Mostly Cloudy
8:36 AM 28.4 °F 16.2 °F 21.2 °F 74% 29.14 in 10.0 mi NW 17.3 mph 23.0 mph N/A   Mostly Cloudy
8:56 AM 28.4 °F 16.2 °F 21.2 °F 74% 29.14 in 10.0 mi NW 17.3 mph - N/A   Partly Cloudy
9:16 AM 30.2 °F 17.4 °F 21.2 °F 69% 29.15 in 10.0 mi NW 20.7 mph - N/A   Mostly Cloudy
9:36 AM 30.2 °F 17.8 °F 19.4 °F 64% 29.16 in 9.0 mi WNW 19.6 mph 25.3 mph N/A   Overcast
9:56 AM 28.4 °F 18.0 °F 21.2 °F 74% 29.16 in 10.0 mi NW 12.7 mph - N/A   Mostly Cloudy
10:16 AM 30.2 °F 19.3 °F 23.0 °F 75% 29.17 in 2.0 mi NW 15.0 mph 19.6 mph N/A   Mostly Cloudy
10:36 AM 30.2 °F 18.5 °F 21.2 °F 69% 29.17 in 10.0 mi NW 17.3 mph 20.7 mph N/A   Overcast
10:56 AM 30.2 °F 19.3 °F 19.4 °F 64% 29.18 in 10.0 mi NW 15.0 mph - N/A   Overcast
11:16 AM 30.2 °F 19.3 °F 19.4 °F 64% 29.18 in 10.0 mi NW 15.0 mph 18.4 mph N/A   Overcast
11:36 AM 30.2 °F 18.9 °F 17.6 °F 60% 29.19 in 10.0 mi WNW 16.1 mph - N/A   Overcast
11:56 AM 30.2 °F 18.9 °F 24.8 °F 80% 29.20 in 9.0 mi WNW 16.1 mph 25.3 mph N/A   Mostly Cloudy
12:16 PM 28.4 °F 15.8 °F 24.8 °F 86% 29.21 in 1.8 mi WNW 18.4 mph - N/A   Overcast
12:36 PM 30.2 °F 18.5 °F 23.0 °F 75% 29.21 in 10.0 mi WNW 17.3 mph 21.9 mph N/A   Mostly Cloudy
12:56 PM 30.2 °F 18.5 °F 19.4 °F 64% 29.21 in 10.0 mi WNW 17.3 mph - N/A   Mostly Cloudy
1:16 PM 28.4 °F 17.5 °F 19.4 °F 69% 29.22 in 10.0 mi WNW 13.8 mph - N/A   Mostly Cloudy
1:36 PM 30.2 °F 18.9 °F 19.4 °F 64% 29.22 in 10.0 mi WNW 16.1 mph - N/A   Mostly Cloudy
1:56 PM 30.2 °F 19.8 °F 19.4 °F 64% 29.22 in 10.0 mi WNW 13.8 mph - N/A   Mostly Cloudy
2:16 PM 30.2 °F 16.8 °F 21.2 °F 69% 29.23 in 9.0 mi WNW 23.0 mph 26.5 mph N/A   Overcast
2:36 PM 30.2 °F 18.1 °F 24.8 °F 80% 29.23 in 4.0 mi WNW 18.4 mph 27.6 mph N/A   Overcast
2:56 PM 30.2 °F 18.5 °F 24.8 °F 80% 29.24 in 6.0 mi WNW 17.3 mph - N/A   Mostly Cloudy
3:16 PM 30.2 °F 17.4 °F 24.8 °F 80% 29.24 in 10.0 mi West 20.7 mph - N/A   Mostly Cloudy
3:36 PM 30.2 °F 18.5 °F 24.8 °F 80% 29.25 in 10.0 mi West 17.3 mph - N/A   Mostly Cloudy
3:56 PM 30.2 °F 17.8 °F 24.8 °F 80% 29.25 in 7.0 mi West 19.6 mph 25.3 mph N/A   Overcast
4:16 PM 30.2 °F 16.5 °F 24.8 °F 80% 29.26 in 4.0 mi WNW 24.2 mph 28.8 mph N/A   Mostly Cloudy
4:36 PM 28.4 °F 17.0 °F 24.8 °F 86% 29.27 in 5.0 mi NW 15.0 mph 21.9 mph N/A   Mostly Cloudy
4:56 PM 28.4 °F 15.8 °F 24.8 °F 86% 29.27 in 10.0 mi WNW 18.4 mph 21.9 mph N/A   Overcast
5:16 PM 30.2 °F 18.9 °F 21.2 °F 69% 29.28 in 10.0 mi WNW 16.1 mph - N/A   Overcast
5:36 PM 30.2 °F 18.5 °F 21.2 °F 69% 29.29 in 10.0 mi WNW 17.3 mph 24.2 mph N/A   Overcast
5:56 PM 30.2 °F 19.8 °F 21.2 °F 69% 29.29 in 10.0 mi WNW 13.8 mph - N/A   Overcast
6:16 PM 30.2 °F 19.3 °F 15.8 °F 55% 29.30 in 10.0 mi West 15.0 mph 21.9 mph N/A   Overcast
6:36 PM 30.2 °F 18.5 °F 17.6 °F 60% 29.31 in 10.0 mi West 17.3 mph - N/A   Overcast
6:56 PM 28.4 °F 17.0 °F 19.4 °F 69% 29.32 in 7.0 mi West 15.0 mph 25.3 mph N/A   Overcast
7:16 PM 30.2 °F 20.2 °F 19.4 °F 64% 29.32 in 10.0 mi West 12.7 mph 18.4 mph N/A   Overcast
7:36 PM 28.4 °F 18.5 °F 21.2 °F 74% 29.32 in 10.0 mi NW 11.5 mph - N/A   Overcast
7:56 PM 30.2 °F 18.9 °F 17.6 °F 60% 29.33 in 10.0 mi West 16.1 mph 23.0 mph N/A   Mostly Cloudy
8:16 PM 30.2 °F 19.3 °F 17.6 °F 60% 29.33 in 10.0 mi West 15.0 mph - N/A   Overcast
8:36 PM 30.2 °F 20.2 °F 15.8 °F 55% 29.34 in 10.0 mi West 12.7 mph - N/A   Overcast
8:56 PM 28.4 °F 17.0 °F 19.4 °F 69% 29.35 in 10.0 mi WSW 15.0 mph - N/A   Overcast
9:16 PM 28.4 °F 19.1 °F 19.4 °F 69% 29.35 in 10.0 mi WSW 10.4 mph - N/A   Overcast
9:36 PM 28.4 °F 18.5 °F 19.4 °F 69% 29.36 in 10.0 mi SW 11.5 mph - N/A   Overcast
9:56 PM 28.4 °F 18.5 °F 19.4 °F 69% 29.37 in 10.0 mi West 11.5 mph - N/A   Mostly Cloudy
10:16 PM 28.4 °F 19.7 °F 17.6 °F 64% 29.38 in 10.0 mi SW 9.2 mph - N/A   Overcast
10:36 PM 28.4 °F 20.4 °F 21.2 °F 74% 29.38 in 10.0 mi SW 8.1 mph - N/A   Overcast
10:56 PM 28.4 °F 18.5 °F 19.4 °F 69% 29.38 in 10.0 mi SW 11.5 mph - N/A   Overcast
11:16 PM 28.4 °F 19.7 °F 19.4 °F 69% 29.39 in 10.0 mi WSW 9.2 mph - N/A   Overcast
11:36 PM 30.2 °F 24.3 °F 19.4 °F 64% 29.40 in 10.0 mi West 5.8 mph - N/A   Overcast
11:56 PM 30.2 °F 20.2 °F 19.4 °F 64% 29.41 in 10.0 mi WSW 12.7 mph - N/A   Overcast